When you browse on this site, cookies collect data to enhance your experience and personalize the content and advertising you see.
Visit our Privacy Policy to learn more. By continuing to use the site, you agree to this use of cookies and data.
EN

Hourly Weather Port Said

Today, 11 July, Saturday

Time Temperature Precipitation Wind Pressure Humidity
00:00 +26°C° 0 mm 3 mps 756 mmHg 86%
01:00 +25°C° 0 mm 3 mps 756 mmHg 88%
02:00 +25°C° 0 mm 4 mps 756 mmHg 89%
03:00 +25°C° 0 mm 4 mps 756 mmHg 91%
04:00 +23°C° 0 mm 4 mps 756 mmHg 92%
05:00 +23°C° 0 mm 4 mps 756 mmHg 93%
06:00 +26°C° 0 mm 3 mps 756 mmHg 84%
07:00 +27°C° 0 mm 3 mps 756 mmHg 76%
08:00 +29°C° 0 mm 3 mps 757 mmHg 67%
09:00 +31°C° 0 mm 3 mps 757 mmHg 57%
10:00 +35°C° 0 mm 4 mps 757 mmHg 48%
11:00 +37°C° 0 mm 4 mps 756 mmHg 39%
12:00 +38°C° 0 mm 6 mps 756 mmHg 38%
13:00 +38°C° 0 mm 7 mps 756 mmHg 38%
14:00 +38°C° 0 mm 8 mps 756 mmHg 38%
15:00 +35°C° 0 mm 8 mps 755 mmHg 42%
16:00 +34°C° 0 mm 8 mps 755 mmHg 46%
17:00 +33°C° 0 mm 8 mps 755 mmHg 50%
18:00 +31°C° 0 mm 8 mps 755 mmHg 60%
19:00 +29°C° 0 mm 7 mps 756 mmHg 71%
20:00 +27°C° 0 mm 6 mps 756 mmHg 81%
21:00 +27°C° 0 mm 5 mps 756 mmHg 82%
22:00 +26°C° 0 mm 4 mps 756 mmHg 84%
23:00 +26°C° 0 mm 3 mps 756 mmHg 86%

Tomorrow, 12 July, Sunday

Time Temperature Precipitation Wind Pressure Humidity
00:00 +25°C° 0 mm 3 mps 755 mmHg 88%
01:00 +25°C° 0 mm 3 mps 755 mmHg 89%
02:00 +24°C° 0 mm 3 mps 754 mmHg 91%
03:00 +23°C° 0 mm 4 mps 755 mmHg 93%
04:00 +23°C° 0 mm 4 mps 755 mmHg 94%
05:00 +22°C° 0 mm 5 mps 755 mmHg 96%
06:00 +25°C° 0 mm 4 mps 755 mmHg 86%
07:00 +27°C° 0 mm 4 mps 755 mmHg 76%
08:00 +29°C° 0 mm 4 mps 755 mmHg 66%
09:00 +32°C° 0 mm 4 mps 755 mmHg 57%
10:00 +34°C° 0 mm 5 mps 755 mmHg 48%
11:00 +36°C° 0 mm 5 mps 755 mmHg 39%
12:00 +36°C° 0 mm 6 mps 755 mmHg 41%
13:00 +36°C° 0 mm 7 mps 754 mmHg 44%
14:00 +35°C° 0 mm 9 mps 754 mmHg 47%
15:00 +34°C° 0 mm 9 mps 754 mmHg 50%
16:00 +33°C° 0 mm 9 mps 754 mmHg 54%
17:00 +32°C° 0 mm 9 mps 754 mmHg 58%
18:00 +31°C° 0 mm 8 mps 754 mmHg 65%
19:00 +28°C° 0 mm 8 mps 754 mmHg 73%
20:00 +27°C° 0 mm 7 mps 754 mmHg 80%
21:00 +26°C° 0 mm 6 mps 754 mmHg 83%
22:00 +26°C° 0 mm 5 mps 754 mmHg 86%
23:00 +25°C° 0 mm 4 mps 754 mmHg 89%

Day after tomorrow, 13 July, Monday

Time Temperature Precipitation Wind Pressure Humidity
00:00 +25°C° 0 mm 4 mps 754 mmHg 91%
01:00 +23°C° 0 mm 4 mps 753 mmHg 92%
02:00 +23°C° 0 mm 4 mps 753 mmHg 94%
03:00 +22°C° 0 mm 4 mps 753 mmHg 94%
04:00 +22°C° 0 mm 4 mps 753 mmHg 94%
05:00 +22°C° 0 mm 4 mps 753 mmHg 95%
06:00 +25°C° 0 mm 4 mps 753 mmHg 84%
07:00 +27°C° 0 mm 4 mps 753 mmHg 73%
08:00 +29°C° 0 mm 4 mps 753 mmHg 62%
09:00 +32°C° 0 mm 4 mps 753 mmHg 53%
10:00 +34°C° 0 mm 5 mps 753 mmHg 44%
11:00 +38°C° 0 mm 6 mps 753 mmHg 35%
12:00 +36°C° 0 mm 6 mps 752 mmHg 38%
13:00 +36°C° 0 mm 7 mps 752 mmHg 42%
14:00 +35°C° 0 mm 8 mps 752 mmHg 46%
15:00 +34°C° 0 mm 8 mps 752 mmHg 50%
16:00 +33°C° 0 mm 8 mps 751 mmHg 54%
17:00 +32°C° 0 mm 8 mps 751 mmHg 57%
18:00 +30°C° 0 mm 7 mps 752 mmHg 65%
19:00 +28°C° 0 mm 6 mps 752 mmHg 73%
20:00 +27°C° 0 mm 5 mps 752 mmHg 82%
21:00 +26°C° 0 mm 4 mps 752 mmHg 83%
22:00 +26°C° 0 mm 4 mps 753 mmHg 85%
23:00 +25°C° 0 mm 3 mps 753 mmHg 86%

14 July, Tuesday

Time Temperature Precipitation Wind Pressure Humidity
00:00 +25°C° 0 mm 3 mps 753 mmHg 88%
01:00 +24°C° 0 mm 3 mps 753 mmHg 90%
02:00 +24°C° 0 mm 3 mps 752 mmHg 91%
03:00 +22°C° 0 mm 3 mps 752 mmHg 92%
04:00 +22°C° 0 mm 3 mps 752 mmHg 93%
05:00 +21°C° 0 mm 2 mps 752 mmHg 93%
06:00 +24°C° 0 mm 2 mps 753 mmHg 83%
07:00 +26°C° 0 mm 2 mps 753 mmHg 73%
08:00 +28°C° 0 mm 2 mps 753 mmHg 64%
09:00 +31°C° 0 mm 2 mps 753 mmHg 52%
10:00 +34°C° 0 mm 2 mps 753 mmHg 41%
11:00 +36°C° 0 mm 1 mps 753 mmHg 29%
12:00 +38°C° 0 mm 3 mps 753 mmHg 30%
13:00 +38°C° 0 mm 4 mps 753 mmHg 30%
14:00 +40°C° 0 mm 5 mps 752 mmHg 30%
15:00 +39°C° 0 mm 6 mps 752 mmHg 32%
16:00 +38°C° 0 mm 6 mps 752 mmHg 34%
17:00 +36°C° 0 mm 7 mps 752 mmHg 37%
18:00 +34°C° 0 mm 6 mps 752 mmHg 46%
19:00 +32°C° 0 mm 5 mps 753 mmHg 55%
20:00 +29°C° 0 mm 5 mps 753 mmHg 65%
21:00 +28°C° 0 mm 4 mps 753 mmHg 68%
22:00 +27°C° 0 mm 3 mps 754 mmHg 71%
23:00 +27°C° 0 mm 2 mps 754 mmHg 75%

15 July, Wednesday

Time Temperature Precipitation Wind Pressure Humidity
00:00 +26°C° 0 mm 2 mps 754 mmHg 77%
01:00 +26°C° 0 mm 2 mps 754 mmHg 79%
02:00 +25°C° 0 mm 2 mps 754 mmHg 81%
03:00 +25°C° 0 mm 2 mps 754 mmHg 82%
04:00 +25°C° 0 mm 2 mps 754 mmHg 83%
05:00 +24°C° 0 mm 2 mps 754 mmHg 84%
06:00 +27°C° 0 mm 2 mps 754 mmHg 74%
07:00 +29°C° 0 mm 2 mps 755 mmHg 64%
08:00 +31°C° 0 mm 2 mps 755 mmHg 54%
09:00 +34°C° 0 mm 2 mps 755 mmHg 48%
10:00 +36°C° 0 mm 3 mps 755 mmHg 41%
11:00 +37°C° 0 mm 4 mps 755 mmHg 35%
12:00 +39°C° 0 mm 5 mps 755 mmHg 34%
13:00 +39°C° 0 mm 6 mps 754 mmHg 33%
14:00 +39°C° 0 mm 6 mps 754 mmHg 32%
15:00 +36°C° 0 mm 7 mps 754 mmHg 38%
16:00 +35°C° 0 mm 7 mps 754 mmHg 45%
17:00 +34°C° 0 mm 7 mps 754 mmHg 51%
18:00 +32°C° 0 mm 7 mps 754 mmHg 59%
19:00 +30°C° 0 mm 7 mps 755 mmHg 67%
20:00 +28°C° 0 mm 6 mps 755 mmHg 75%
21:00 +28°C° 0 mm 6 mps 755 mmHg 79%
22:00 +27°C° 0 mm 5 mps 755 mmHg 83%
23:00 +27°C° 0 mm 5 mps 755 mmHg 86%

16 July, Thursday

Time Temperature Precipitation Wind Pressure Humidity
00:00 +26°C° 0 mm 5 mps 755 mmHg 87%
01:00 +26°C° 0 mm 5 mps 755 mmHg 87%
02:00 +26°C° 0 mm 5 mps 755 mmHg 88%
03:00 +25°C° 0 mm 4 mps 755 mmHg 89%
04:00 +25°C° 0 mm 4 mps 755 mmHg 89%
05:00 +24°C° 0 mm 3 mps 755 mmHg 90%
06:00 +26°C° 0 mm 3 mps 755 mmHg 80%
07:00 +28°C° 0 mm 3 mps 755 mmHg 70%
08:00 +29°C° 0 mm 4 mps 755 mmHg 60%
09:00 +32°C° 0 mm 4 mps 755 mmHg 52%
10:00 +34°C° 0 mm 5 mps 755 mmHg 44%
11:00 +36°C° 0 mm 5 mps 755 mmHg 36%
12:00 +36°C° 0 mm 6 mps 754 mmHg 38%
13:00 +37°C° 0 mm 8 mps 754 mmHg 40%
14:00 +37°C° 0 mm 9 mps 754 mmHg 43%
15:00 +34°C° 0 mm 9 mps 753 mmHg 45%
16:00 +33°C° 0 mm 9 mps 753 mmHg 47%
17:00 +32°C° 0 mm 10 mps 753 mmHg 50%
18:00 +31°C° 0 mm 9 mps 753 mmHg 57%
19:00 +28°C° 0 mm 8 mps 754 mmHg 64%
20:00 +26°C° 0 mm 7 mps 754 mmHg 71%
21:00 +26°C° 0 mm 6 mps 754 mmHg 73%
22:00 +24°C° 0 mm 6 mps 754 mmHg 76%
23:00 +23°C° 0 mm 5 mps 754 mmHg 79%
Show more